Vorticity
4 4 5 6 6 5 6 6 7 7 6 6 6 5 6 7 9 9 7 6 6 4
0 3 3 4 5 5 6 7 8 7 7 7 8 7 6 6 7 8 8 6 5 4
1 -1 5 5 7 8 8 8 9 8 8 8 9 7 6 5 6 7 7 8 7 5
-0 0 8 11 11 11 11 9 9 9 8 8 7 6 6 5 5 5 8 8 8 9
8 13 14 15 13 11 10 9 7 6 8 8 8 7 7 6 6 6 7 6 6 7
15 21 19 18 17 14 13 13 13 13 13 12 10 8 6 5 5 5 5 4 4 5
20 13 11 10 8 6 5 5 4 3 4 4 5 5 5 5 6 6 7 7 6 7
9 5 2 2 4 4 5 6 6 6 6 7 7 7 8 8 8 8 8 9 10 9
4 6 7 7 8 8 7 6 7 7 7 8 8 7 6 7 7 7 7 7 8 9
8 8 7 7 7 7 7 7 6 7 8 8 8 7 7 8 8 9 10 11 11 11
5 6 7 6 6 6 7 8 8 8 8 7 7 8 9 11 11 12 12 14 16 16
8 7 6 8 9 9 7 7 6 6 7 9 8 10 12 15 15 15 13 13 12 12
7 8 8 7 8 8 8 8 10 8 10 15 18 17 15 13 12 13 15 16 18 17
7 8 7 6 6 7 7 7 12 17 17 14 11 11 12 15 18 19 16 13 12 12
Height
3109 3109 3108 3107 3107 3106 3105 3105 3104 3103 3102 3101 3099 3098 3097 3094 3092 3091 3090 3089 3088 3086
3103 3103 3103 3102 3101 3099 3098 3097 3097 3096 3095 3094 3093 3092 3090 3088 3086 3085 3084 3083 3082 3081
3098 3097 3096 3095 3094 3092 3091 3090 3089 3089 3088 3087 3086 3085 3083 3082 3080 3078 3077 3075 3075 3074
3091 3090 3089 3088 3086 3085 3084 3083 3082 3082 3081 3080 3078 3077 3075 3074 3072 3071 3069 3068 3066 3066
3083 3081 3080 3079 3078 3076 3076 3075 3074 3073 3073 3071 3070 3068 3067 3066 3064 3062 3061 3059 3057 3056
3073 3072 3071 3070 3069 3069 3068 3068 3066 3066 3065 3063 3062 3060 3058 3056 3055 3052 3050 3049 3047 3045
3066 3065 3064 3064 3063 3063 3062 3062 3060 3058 3057 3055 3053 3051 3049 3047 3044 3042 3040 3037 3034 3032
3061 3060 3059 3059 3058 3057 3056 3054 3053 3051 3048 3046 3043 3041 3038 3036 3033 3029 3027 3024 3021 3018
3055 3055 3054 3052 3051 3049 3048 3045 3043 3041 3038 3036 3033 3029 3025 3022 3019 3016 3012 3009 3007 3003
3049 3048 3046 3045 3043 3041 3038 3035 3032 3029 3026 3023 3020 3016 3012 3008 3004 3001 2997 2994 2990 2988
3042 3040 3038 3036 3033 3030 3027 3024 3021 3018 3014 3011 3007 3003 2999 2994 2990 2986 2982 2979 2975 2971
3032 3030 3028 3026 3023 3020 3017 3014 3010 3007 3002 2998 2994 2989 2985 2980 2976 2972 2969 2966 2963 2959
3023 3021 3019 3016 3013 3010 3006 3002 2998 2994 2990 2985 2981 2977 2972 2967 2962 2958 2955 2953 2950 2947
3014 3012 3009 3005 3002 2997 2994 2990 2985 2981 2977 2972 2968 2963 2958 2954 2948 2944 2940 2937 2935 2934